Wind_Speed
17 15 12 10 5 3 2 1 1 1 1 2 2 2 2 2 4 4 5 7 8 18 13 15 6 6 4 2 1 1 2 4 5 6 5 10 7 3 2 6 3 1 2 4 22
18 15 13 10 6 3 2 1 1 1 1 1 2 2 2 3 2 7 6 8 10 18 14 14 7 7 3 2 2 1 2 7 4 4 6 13 10 10 5 5 4 4 3 17 24
19 15 13 11 7 2 2 2 1 1 1 1 2 3 4 0 3 5 11 13 13 16 11 7 10 4 3 3 2 2 2 1 3 5 4 12 8 7 5 6 7 9 13 20 22
20 16 13 11 8 3 2 2 1 1 1 2 2 3 2 3 8 3 15 15 16 14 14 7 7 4 2 3 2 2 0 1 5 2 7 12 9 6 10 2 4 7 16 22 20
20 17 13 11 8 4 3 2 2 2 2 2 2 3 2 2 3 6 17 18 18 12 10 5 6 3 2 2 3 1 1 1 2 2 7 11 8 6 10 2 3 13 17 17 19
20 17 14 11 8 4 3 3 3 2 3 3 2 1 1 4 2 5 17 22 13 10 7 5 3 3 3 1 3 1 2 3 2 7 8 9 5 3 7 7 9 13 15 15 18
21 18 15 11 8 4 4 4 4 3 4 3 1 1 2 1 1 5 19 17 12 11 5 6 3 1 3 3 2 2 3 4 8 8 5 6 7 14 7 11 12 12 12 14 17
22 19 15 12 8 4 4 4 4 4 4 2 4 2 3 2 2 12 15 9 7 7 2 3 7 5 1 4 2 1 0 3 3 9 5 8 17 10 14 15 13 13 11 12 14
23 20 16 12 8 5 4 5 3 3 1 5 3 1 1 3 4 11 12 5 8 5 3 7 4 3 3 2 1 1 7 7 4 12 7 12 13 1 12 14 14 14 13 13 13
24 22 18 13 8 4 3 2 1 1 3 2 1 2 3 2 5 8 13 10 5 9 5 2 3 2 2 4 6 7 8 6 9 5 10 12 20 1 10 13 14 13 13 13 13
25 24 19 13 8 4 1 3 2 2 3 4 0 2 2 1 6 4 9 8 5 3 4 3 5 8 10 13 13 8 8 13 5 4 9 14 17 11 11 13 13 13 13 14 15
25 25 21 13 8 4 4 3 2 3 4 5 6 6 6 1 0 6 13 6 6 5 7 3 9 12 4 7 10 8 7 8 2 2 10 4 14 11 12 15 17 15 14 15 14
26 26 21 13 11 2 5 3 8 7 2 2 3 4 3 9 5 6 12 5 4 5 7 5 6 3 7 3 5 6 8 9 5 6 2 3 8 6 6 13 14 17 14 13 14
27 29 19 10 1 1 4 6 8 4 1 1 2 3 5 5 5 6 11 4 3 8 6 6 1 3 2 10 3 13 6 10 5 5 8 2 5 4 5 11 16 17 18 16 14
28 30 16 5 2 3 2 4 3 3 1 3 1 1 1 6 4 7 4 3 9 9 4 12 9 9 12 11 5 13 1 2 5 4 3 5 4 4 3 8 15 16 17 18 13
31 27 13 3 5 3 3 5 1 1 1 2 1 0 4 3 3 1 4 2 2 5 4 14 1 5 13 12 7 4 3 3 3 1 6 4 6 4 4 3 4 4 13 13 13
34 21 10 5 1 6 2 2 1 1 2 3 2 3 1 1 2 4 7 6 7 6 9 5 7 3 4 5 3 2 2 5 5 4 9 4 5 9 4 6 8 7 7 9 6
33 16 7 8 4 4 4 1 1 1 3 2 3 0 2 5 1 4 2 5 5 5 7 6 10 6 4 4 2 3 3 4 9 10 12 3 5 2 1 6 5 4 5 6 7
24 7 5 3 7 2 2 2 3 4 1 3 1 2 3 1 1 4 3 3 1 6 7 6 6 2 3 2 3 3 4 2 2 1 4 1 4 7 2 6 4 4 6 9 8
12 4 4 6 6 4 2 3 3 3 1 1 1 1 1 3 2 4 3 2 1 1 1 3 3 1 2 3 7 1 3 3 1 4 5 1 4 5 6 7 7 8 11 9 6
3 1 10 10 3 2 2 3 4 5 4 2 2 3 1 1 3 2 3 2 2 0 2 4 1 1 3 1 0 1 2 2 0 2 3 5 5 5 9 8 7 9 8 6 6
2 1 5 4 2 1 2 3 2 3 3 4 2 2 3 3 4 3 2 3 5 3 2 1 3 2 1 1 2 1 1 1 3 2 0 2 3 4 8 9 8 8 7 7 6
2 1 1 3 2 1 1 3 3 2 4 4 4 2 2 1 2 1 2 2 3 1 0 3 1 2 1 3 2 2 2 2 2 1 4 6 3 5 8 9 8 7 2 5 4
1 2 2 3 1 2 0 3 3 2 2 2 3 3 2 3 3 1 1 1 2 3 9 3 2 2 3 2 2 4 8 4 2 2 1 2 8 11 17 15 9 7 7 8 8
1 1 1 3 2 3 1 2 2 3 1 5 2 7 7 4 2 4 2 2 0 3 3 2 3 2 2 2 2 2 4 5 2 3 4 8 9 11 13 13 7 6 7 8 9
3 2 2 2 1 1 1 1 2 3 3 3 5 7 8 5 4 5 6 2 1 2 2 1 1 0 2 0 3 4 3 1 5 6 4 7 6 11 8 6 6 4 5 7 8
3 2 2 1 1 1 1 1 2 4 2 2 4 4 4 0 3 3 2 2 5 2 2 1 3 1 1 5 5 3 3 5 3 5 3 7 4 8 7 8 7 5 4 5 3
Wind_Direction
3 1 360 356 353 336 320 308 316 312 313 302 300 291 280 283 276 229 230 204 177 173 173 158 121 139 150 133 85 131 159 170 171 171 148 165 177 147 114 148 137 149 125 134 151
0 0 357 357 352 335 302 291 294 300 307 310 310 304 302 312 225 241 216 185 179 176 162 164 149 143 131 141 134 188 198 182 171 159 175 177 186 172 182 165 183 177 112 144 153
357 359 355 355 350 325 287 270 257 293 309 316 320 322 325 162 183 228 192 174 169 162 165 151 144 167 174 169 144 143 326 180 206 209 202 178 182 175 183 207 212 207 163 162 165
356 358 356 352 349 329 282 272 273 282 289 308 323 339 10 142 155 192 184 181 166 150 136 135 153 178 192 179 141 252 184 157 17 299 177 186 157 198 212 208 305 216 169 168 177
356 356 354 350 347 327 284 263 262 270 283 298 331 349 144 197 249 169 180 174 174 163 143 162 172 171 260 165 159 256 57 336 357 184 179 155 192 214 222 251 130 152 162 180 183
357 355 349 350 343 324 278 259 261 266 287 300 332 24 163 158 275 196 183 177 179 155 164 170 240 193 109 121 216 122 209 215 164 161 161 183 171 201 205 163 166 170 178 184 186
357 355 347 349 342 322 276 260 263 274 298 289 238 152 229 44 328 181 177 179 172 181 150 198 192 281 137 136 143 154 234 243 185 177 169 169 219 224 179 172 182 186 185 190 202
356 354 346 345 338 317 280 268 268 287 304 250 168 152 244 252 193 162 162 168 181 173 153 316 191 105 32 137 61 357 262 267 144 170 175 201 261 209 169 174 193 194 195 207 216
355 352 347 339 335 319 279 272 275 298 27 130 117 192 173 144 191 192 178 145 155 179 119 109 82 84 149 161 279 250 268 236 278 208 161 205 264 142 176 188 195 201 200 211 224
352 350 346 338 337 321 292 233 180 101 131 105 123 235 179 187 171 169 182 154 131 128 115 158 84 177 143 198 287 281 254 260 250 198 213 208 250 180 187 202 206 210 208 218 215
349 347 346 340 336 324 163 131 238 187 216 220 218 289 259 323 150 200 170 159 133 182 179 186 210 232 253 220 258 288 261 256 267 194 205 234 259 265 208 213 217 220 215 223 221
345 343 343 336 327 296 210 224 151 36 295 244 254 275 257 304 220 160 160 178 189 187 131 152 238 247 280 228 244 261 258 261 217 166 214 248 272 267 221 220 219 222 224 229 231
341 339 338 330 319 217 213 223 174 360 270 280 199 219 222 182 208 206 180 158 172 183 198 224 274 175 264 229 271 279 242 257 271 145 186 303 283 251 227 229 225 228 237 238 238
338 336 332 329 78 182 241 194 221 274 355 351 238 268 176 177 229 189 193 152 180 233 192 251 267 273 301 304 266 303 249 245 183 197 288 235 283 267 247 247 233 231 230 235 240
336 335 325 299 279 220 161 281 146 158 83 356 112 131 131 208 190 202 174 143 214 205 197 263 256 269 284 274 257 283 24 220 172 196 243 191 236 259 269 262 246 234 229 229 237
336 334 319 288 229 210 289 149 163 267 125 34 69 86 171 233 201 117 175 151 105 175 223 257 274 237 259 290 231 142 126 84 89 152 261 273 217 262 234 257 315 268 227 227 239
337 329 298 210 216 155 108 169 9 194 317 4 346 4 108 358 280 218 185 181 206 209 238 254 254 251 205 212 159 174 244 276 265 254 290 135 200 266 298 301 284 313 211 201 196
335 326 285 219 204 255 151 119 164 250 261 336 344 43 91 356 49 332 222 227 227 215 240 251 280 196 183 239 238 162 200 261 294 294 310 155 237 273 271 312 259 267 222 176 177
335 319 296 351 226 208 175 115 206 205 295 299 146 61 53 79 319 341 242 249 185 182 202 189 254 297 63 32 317 124 219 18 284 95 254 354 270 263 272 240 227 197 188 197 192
335 334 355 330 148 152 105 192 218 221 244 178 348 305 305 341 336 23 293 29 95 183 243 143 271 23 24 118 67 320 100 266 245 280 292 204 291 286 294 258 221 213 211 204 193
352 82 356 120 75 72 159 214 235 234 217 208 221 196 185 292 279 110 295 319 22 312 189 136 209 193 246 100 94 203 236 63 321 284 303 321 307 347 330 345 309 268 238 214 202
349 88 353 7 84 14 165 199 229 249 177 222 149 136 223 194 246 120 261 290 12 345 219 72 145 254 314 37 269 203 72 144 292 285 247 301 297 346 333 330 307 293 256 191 192
23 52 0 11 146 171 261 262 242 224 224 194 171 206 178 239 277 320 23 340 325 223 348 183 46 268 197 163 134 53 25 106 117 204 245 295 339 14 5 356 358 332 239 137 113
298 112 41 61 34 118 194 253 245 206 210 151 133 118 118 244 209 196 314 339 329 62 56 60 109 248 291 305 18 305 321 344 225 267 340 296 320 356 356 354 360 47 78 77 82
345 65 357 173 128 98 134 315 268 217 185 189 144 204 187 198 200 203 200 272 278 96 80 90 161 230 23 272 197 71 21 43 72 46 355 350 340 7 353 353 29 84 91 89 89
346 334 60 80 59 89 99 222 265 270 230 217 230 183 191 224 236 211 200 164 7 134 86 86 136 293 154 97 348 108 51 99 80 31 19 347 34 5 10 39 55 82 123 144 166
340 292 286 54 100 230 170 312 315 355 258 288 284 190 195 116 297 325 256 79 123 121 144 139 141 9 280 349 133 151 47 57 87 55 350 14 358 337 19 28 29 46 102 112 108
Height
806 803 800 798 797 796 795 795 795 795 795 795 795 795 795 794 794 795 793 789 791 792 796 799 803 805 805 804 805 806 819 827 825 827 824 819 823 824 824 827 828 831 831 834 840
806 803 800 798 796 795 795 795 795 794 794 794 794 794 794 794 794 793 787 787 790 792 796 799 802 804 805 805 807 810 821 819 811 812 817 817 818 823 827 829 831 833 834 835 838
805 802 800 797 796 795 794 795 794 794 793 793 793 793 792 792 794 785 785 787 790 793 796 799 800 801 805 804 808 812 817 814 811 810 811 814 819 818 823 829 822 825 831 835 838
805 802 799 797 795 794 794 794 794 793 793 793 792 792 791 792 801 783 784 787 791 794 797 800 801 803 806 809 807 815 812 813 812 809 812 816 813 820 819 818 822 822 827 831 835
804 801 798 796 794 793 793 793 793 793 792 792 791 791 791 792 786 783 784 788 792 795 797 799 801 803 806 806 808 810 812 812 813 810 809 812 816 816 818 821 822 824 828 830 833
804 800 798 795 793 792 792 792 791 791 791 791 790 791 792 791 783 782 783 788 792 796 798 798 797 799 805 807 809 811 810 810 811 811 812 816 820 821 818 822 824 825 824 828 832
803 800 797 795 793 791 791 790 790 790 790 790 790 790 791 784 782 781 782 788 792 794 796 798 798 799 804 811 809 811 816 810 811 811 814 813 822 816 813 820 823 823 824 828 830
803 800 796 794 792 790 790 789 789 789 789 788 789 790 787 782 782 783 784 788 792 794 795 796 797 801 805 808 811 816 818 822 812 809 810 811 809 799 811 817 821 821 824 829 831
803 799 796 793 791 790 789 788 788 788 788 788 789 789 786 783 783 782 784 787 791 794 796 797 798 805 808 814 820 820 819 822 815 805 808 811 804 807 813 815 816 819 821 825 828
803 799 795 792 791 789 788 788 788 789 789 789 789 791 783 780 778 779 783 786 789 794 797 799 802 809 816 815 827 819 821 820 817 810 812 814 805 811 814 816 815 818 820 824 824
802 798 794 791 789 788 789 789 792 791 789 781 781 780 776 777 779 780 779 783 786 791 802 802 808 811 799 803 799 807 815 815 806 804 811 808 806 802 811 814 815 817 818 820 820
801 796 792 790 788 787 788 787 784 786 786 779 781 779 776 776 780 778 781 785 790 798 801 810 812 793 797 798 806 807 812 809 808 807 809 810 805 800 806 809 810 811 814 814 815
799 795 790 788 785 785 785 783 783 783 787 781 778 777 774 775 777 776 776 779 787 798 801 807 796 791 795 797 803 801 808 803 804 811 812 813 807 804 804 804 805 806 808 809 811
796 792 788 786 788 784 783 781 782 783 796 789 780 773 772 771 779 768 771 775 786 794 797 798 790 792 794 796 797 804 786 792 804 810 812 816 822 802 805 803 801 801 802 804 806
793 789 785 784 784 784 782 782 780 783 826 782 777 769 770 774 768 770 768 772 786 789 793 795 790 794 797 789 786 793 785 793 801 809 813 817 824 795 809 800 794 794 796 798 801
790 785 782 781 781 781 780 780 782 801 825 789 776 779 780 774 771 767 769 768 772 786 787 785 781 783 780 774 780 783 790 800 805 807 818 805 815 804 798 793 789 789 792 795 800
786 782 780 779 780 780 780 782 802 816 793 796 788 781 784 786 781 775 777 785 789 803 800 789 784 775 774 784 783 788 796 811 816 817 816 817 821 798 791 790 791 791 790 793 797
782 778 776 777 778 779 780 786 819 805 799 785 787 785 790 788 785 784 784 787 782 783 790 804 809 782 769 776 783 794 794 809 830 821 807 822 820 796 791 789 789 790 788 793 797
778 775 776 775 776 779 781 804 805 801 790 791 789 795 795 791 792 788 788 785 778 780 793 805 802 773 773 772 777 795 801 797 809 823 819 813 805 789 792 790 790 791 792 793 795
777 775 776 774 774 778 785 804 797 790 785 787 799 796 802 796 794 792 792 780 781 775 774 790 802 782 777 772 781 786 791 808 809 823 824 816 817 805 787 784 787 791 790 792 796
777 776 777 775 776 778 794 796 791 782 783 790 793 798 797 799 798 796 792 782 779 781 775 781 794 793 783 788 793 794 797 807 810 814 819 823 814 791 791 791 789 786 789 794 798
779 781 778 777 783 798 792 791 786 781 780 783 787 791 796 796 799 790 796 789 779 781 786 788 794 801 793 786 785 788 797 801 810 817 821 821 810 797 796 794 794 789 789 792 798
783 781 779 777 791 793 792 788 783 782 783 784 789 787 790 797 803 795 791 781 781 782 787 786 801 808 801 797 789 795 795 802 809 813 811 813 807 795 793 792 793 792 791 795 803
785 784 781 782 791 788 792 789 787 777 780 781 786 786 795 797 794 796 794 783 780 783 791 787 801 801 809 805 802 805 798 798 803 810 812 811 811 798 797 796 794 797 799 804 807
785 785 784 787 789 792 795 794 788 786 779 780 788 785 790 799 796 795 792 786 783 787 788 791 803 802 798 800 800 805 805 803 806 809 813 810 810 808 807 805 801 804 805 807 813
787 786 786 791 792 791 798 792 791 785 784 783 785 783 786 789 783 789 786 782 791 787 789 795 804 801 801 797 798 806 805 805 804 806 807 809 809 812 810 805 805 806 807 812 811
790 789 786 800 794 793 792 791 790 791 780 778 780 780 785 781 778 777 781 779 781 786 793 795 797 801 807 802 803 812 808 807 806 809 813 815 818 814 810 811 812 812 811 811 813